Torna al catalogo

KUIPER-00561

AttivoComunicazioniLEO
NORAD 69624·PAYLOAD·🇺🇸 United States

Lanciato Jun 17, 2026 da Guiana Space Centre

Loading…

Prossimi Passaggi (prossime 24 ore)

TLE

AggiornatoSource: CelesTrak SupGP

Epoca: Sep 14, 2026, 23:41 UTC

1 69624C 26140AJ  26257.98723380  .00001906  00000+0  24918-3 0  2571
2 69624  51.9014 336.0509 0000623 111.4213 181.0190 14.79990406    19

Traccia KUIPER-00561 in tempo reale con AllMySat

Download on the App Store